Time,TemperatureF,DewpointF,PressureIn,WindDirection,WindDirectionDegrees,WindSpeedMPH,WindSpeedGustMPH,Humidity,HourlyPrecipIn,Conditions,Clouds,dailyrainin,SoftwareType,DateUTC
2013-01-10 00:01:00,38.0,35.0,30.01,East,92,2.0,6.0,90,0.03,,,0.63,,2013-01-10 08:01:00,
2013-01-10 00:11:00,38.0,35.0,30.01,East,92,2.0,6.0,90,0.03,,,0.63,,2013-01-10 08:11:00,
2013-01-10 00:22:00,37.0,34.0,30.01,ENE,77,7.0,9.0,90,0.02,,,0.52,,2013-01-10 08:22:00,
2013-01-10 00:32:00,37.0,34.0,30.02,ESE,111,8.0,11.0,90,0.03,,,0.53,,2013-01-10 08:32:00,
2013-01-10 00:42:00,37.0,34.0,30.02,ESE,111,8.0,11.0,90,0.03,,,0.53,,2013-01-10 08:42:00,
2013-01-10 00:52:00,37.0,35.0,30.03,East,101,4.0,7.0,91,0.03,,,0.54,,2013-01-10 08:52:00,
2013-01-10 01:02:00,37.0,35.0,30.03,ENE,70,3.0,7.0,91,0.03,,,0.55,,2013-01-10 09:02:00,
2013-01-10 01:12:00,37.0,35.0,30.03,ENE,70,3.0,7.0,91,0.03,,,0.55,,2013-01-10 09:12:00,
2013-01-10 01:22:00,37.0,35.0,30.03,East,94,6.0,11.0,91,0.04,,,0.56,,2013-01-10 09:22:00,
2013-01-10 01:32:00,37.0,35.0,30.03,East,95,5.0,10.0,91,0.03,,,0.56,,2013-01-10 09:32:00,
2013-01-10 01:42:00,37.0,35.0,30.03,East,95,5.0,10.0,91,0.03,,,0.56,,2013-01-10 09:42:00,
2013-01-10 01:52:00,37.0,35.0,30.03,SE,128,6.0,9.0,92,0.02,,,0.56,,2013-01-10 09:52:00,
2013-01-10 02:02:00,37.0,35.0,30.03,ENE,60,3.0,5.0,92,0.02,,,0.56,,2013-01-10 10:02:00,
2013-01-10 02:11:00,37.0,35.0,30.03,ENE,60,3.0,5.0,92,0.02,,,0.56,,2013-01-10 10:11:00,
2013-01-10 02:22:00,37.0,35.0,30.04,SE,143,1.0,4.0,92,0.01,,,0.56,,2013-01-10 10:22:00,
2013-01-10 02:32:00,37.0,35.0,30.05,ESE,122,4.0,7.0,92,0.01,,,0.56,,2013-01-10 10:32:00,
2013-01-10 02:42:00,37.0,35.0,30.05,ESE,122,4.0,7.0,92,0.01,,,0.56,,2013-01-10 10:42:00,
2013-01-10 02:52:00,37.0,35.0,30.05,ESE,110,8.0,12.0,92,0.02,,,0.57,,2013-01-10 10:52:00,
2013-01-10 03:02:00,37.0,35.0,30.05,East,100,5.0,10.0,92,0.01,,,0.57,,2013-01-10 11:02:00,
2013-01-10 03:12:00,37.0,35.0,30.05,East,100,5.0,10.0,92,0.01,,,0.57,,2013-01-10 11:12:00,
2013-01-10 03:22:00,37.0,35.0,30.05,ESE,106,5.0,7.0,92,0.01,,,0.56,,2013-01-10 11:22:00,
2013-01-10 03:32:00,37.0,35.0,30.06,ENE,73,2.0,11.0,92,0.01,,,0.56,,2013-01-10 11:32:00,
2013-01-10 03:42:00,37.0,35.0,30.06,ENE,73,2.0,11.0,92,0.01,,,0.56,,2013-01-10 11:42:00,
2013-01-10 03:52:00,37.0,35.0,30.05,East,89,8.0,14.0,92,0.00,,,0.56,,2013-01-10 11:52:00,
2013-01-10 04:02:00,37.0,35.0,30.05,East,89,8.0,14.0,92,0.00,,,0.56,,2013-01-10 12:02:00,
2013-01-10 04:12:00,37.0,35.0,30.05,East,89,8.0,14.0,92,0.00,,,0.56,,2013-01-10 12:12:00,
2013-01-10 04:22:00,36.0,34.0,30.05,ESE,106,10.0,16.0,92,0.01,,,0.57,,2013-01-10 12:22:00,
2013-01-10 04:32:00,36.0,34.0,30.06,ESE,108,11.0,19.0,92,0.02,,,0.59,,2013-01-10 12:32:00,
2013-01-10 04:42:00,36.0,34.0,30.06,ESE,108,11.0,19.0,92,0.02,,,0.59,,2013-01-10 12:42:00,
2013-01-10 04:52:00,36.0,34.0,30.06,ESE,102,10.0,15.0,92,0.05,,,0.62,,2013-01-10 12:52:00,
2013-01-10 05:02:00,36.0,34.0,30.05,ESE,106,10.0,13.0,93,0.07,,,0.64,,2013-01-10 13:02:00,
2013-01-10 05:12:00,36.0,34.0,30.05,ESE,106,10.0,13.0,93,0.07,,,0.64,,2013-01-10 13:12:00,
2013-01-10 05:22:00,36.0,34.0,30.05,ESE,106,4.0,9.0,93,0.07,,,0.65,,2013-01-10 13:22:00,
2013-01-10 05:32:00,36.0,34.0,30.05,ENE,77,6.0,8.0,93,0.06,,,0.57,,2013-01-10 13:32:00,
2013-01-10 05:42:00,36.0,34.0,30.05,ENE,77,6.0,8.0,93,0.06,,,0.57,,2013-01-10 13:42:00,
2013-01-10 05:52:00,36.0,34.0,30.05,East,98,5.0,10.0,93,0.02,,,0.57,,2013-01-10 13:52:00,
2013-01-10 06:02:00,37.0,35.0,30.05,ESE,123,2.0,7.0,93,0.01,,,0.57,,2013-01-10 14:02:00,
2013-01-10 06:12:00,37.0,35.0,30.05,ESE,123,2.0,7.0,93,0.01,,,0.57,,2013-01-10 14:12:00,
2013-01-10 06:22:00,37.0,35.0,30.06,ESE,117,5.0,7.0,94,0.01,,,0.59,,2013-01-10 14:22:00,
2013-01-10 06:32:00,37.0,35.0,30.07,ESE,106,4.0,8.0,93,0.03,,,0.44,,2013-01-10 14:32:00,
2013-01-10 06:43:00,37.0,35.0,30.07,ESE,106,4.0,8.0,93,0.03,,,0.44,,2013-01-10 14:43:00,
2013-01-10 06:52:00,37.0,35.0,30.08,NNE,31,3.0,4.0,93,0.06,,,0.47,,2013-01-10 14:52:00,
2013-01-10 07:03:00,39.0,38.0,30.09,NNW,331,14.0,21.0,95,0.10,,,0.51,,2013-01-10 15:03:00,
2013-01-10 07:12:00,39.0,38.0,30.09,NNW,331,14.0,21.0,95,0.10,,,0.51,,2013-01-10 15:12:00,
2013-01-10 07:22:00,40.0,38.0,30.09,NNW,343,9.0,28.0,93,0.11,,,0.53,,2013-01-10 15:22:00,
2013-01-10 07:32:00,38.0,36.0,30.09,ENE,65,1.0,8.0,93,0.08,,,0.46,,2013-01-10 15:32:00,
2013-01-10 07:43:00,38.0,36.0,30.09,ENE,65,1.0,8.0,93,0.08,,,0.46,,2013-01-10 15:43:00,
2013-01-10 07:52:00,38.0,36.0,30.08,East,100,3.0,8.0,93,0.07,,,0.47,,2013-01-10 15:52:00,
2013-01-10 08:02:00,40.0,38.0,30.09,NNW,327,11.0,21.0,94,0.05,,,0.49,,2013-01-10 16:02:00,
2013-01-10 08:12:00,40.0,38.0,30.09,NNW,327,11.0,21.0,94,0.05,,,0.49,,2013-01-10 16:12:00,
2013-01-10 08:22:00,42.0,40.0,30.09,NW,323,18.0,30.0,94,0.04,,,0.50,,2013-01-10 16:22:00,
2013-01-10 08:33:00,42.0,40.0,30.09,North,7,10.0,17.0,92,0.04,,,0.47,,2013-01-10 16:33:00,
2013-01-10 08:42:00,42.0,40.0,30.09,North,7,10.0,17.0,92,0.04,,,0.47,,2013-01-10 16:42:00,
2013-01-10 08:52:00,41.0,39.0,30.10,NNE,13,19.0,33.0,92,0.04,,,0.48,,2013-01-10 16:52:00,
2013-01-10 09:02:00,43.0,41.0,30.09,NW,323,20.0,29.0,92,0.03,,,0.49,,2013-01-10 17:02:00,
2013-01-10 09:12:00,43.0,41.0,30.09,NW,323,20.0,29.0,92,0.03,,,0.49,,2013-01-10 17:12:00,
2013-01-10 09:20:00,42.0,40.0,30.10,NE,41,2.0,10.0,91,0.01,,,0.43,,2013-01-10 17:20:00,
2013-01-10 09:22:00,43.0,40.0,30.09,NNE,25,8.0,21.0,90,0.02,,,0.49,,2013-01-10 17:22:00,
2013-01-10 09:33:00,41.0,38.0,30.10,ENE,71,5.0,9.0,90,0.02,,,0.43,,2013-01-10 17:33:00,
2013-01-10 09:42:00,41.0,38.0,30.10,ENE,71,5.0,9.0,90,0.02,,,0.43,,2013-01-10 17:42:00,
2013-01-10 09:53:00,42.0,40.0,30.10,NE,41,2.0,10.0,91,0.01,,,0.43,,2013-01-10 17:53:00,
2013-01-10 10:03:00,42.0,40.0,30.10,NE,41,2.0,10.0,91,0.01,,,0.43,,2013-01-10 18:03:00,
2013-01-10 10:12:00,42.0,40.0,30.10,NE,41,2.0,10.0,91,0.01,,,0.43,,2013-01-10 18:12:00,
2013-01-10 10:33:00,41.0,38.0,30.11,NE,36,7.0,11.0,90,0.00,,,0.42,,2013-01-10 18:33:00,
2013-01-10 10:43:00,41.0,38.0,30.12,NNE,19,5.0,14.0,90,0.00,,,0.42,,2013-01-10 18:43:00,
2013-01-10 10:53:00,41.0,38.0,30.12,NNE,19,5.0,14.0,90,0.00,,,0.42,,2013-01-10 18:53:00,
2013-01-10 11:02:00,40.0,37.0,30.12,NE,52,1.0,5.0,90,0.00,,,0.42,,2013-01-10 19:02:00,
2013-01-10 11:12:00,42.0,40.0,30.11,NW,307,0.0,2.0,92,0.00,,,0.42,,2013-01-10 19:12:00,
2013-01-10 11:22:00,42.0,40.0,30.11,NW,307,0.0,2.0,92,0.00,,,0.42,,2013-01-10 19:22:00,
2013-01-10 11:32:00,43.0,41.0,30.11,SW,233,2.0,7.0,91,0.02,,,0.43,,2013-01-10 19:32:00,
2013-01-10 11:43:00,43.0,41.0,30.11,SW,233,2.0,7.0,91,0.02,,,0.43,,2013-01-10 19:43:00,
2013-01-10 11:52:00,43.0,41.0,30.11,SE,144,2.0,6.0,93,0.02,,,0.43,,2013-01-10 19:52:00,
2013-01-10 12:02:00,42.0,40.0,30.11,ESE,117,3.0,5.0,91,0.06,,,0.47,,2013-01-10 20:02:00,
2013-01-10 12:12:00,42.0,40.0,30.11,ESE,117,3.0,5.0,91,0.06,,,0.47,,2013-01-10 20:12:00,
2013-01-10 12:22:00,44.0,42.0,30.11,NNW,332,21.0,25.0,92,0.06,,,0.47,,2013-01-10 20:22:00,
2013-01-10 12:32:00,46.0,42.0,30.10,NNW,327,20.0,25.0,87,0.05,,,0.46,,2013-01-10 20:32:00,
2013-01-10 12:42:00,46.0,42.0,30.10,NNW,327,20.0,25.0,87,0.05,,,0.46,,2013-01-10 20:42:00,
2013-01-10 12:52:00,46.0,41.0,30.10,North,351,28.0,34.0,84,0.05,,,0.46,,2013-01-10 20:52:00,
2013-01-10 13:03:00,46.0,41.0,30.10,NNW,345,24.0,28.0,82,0.01,,,0.46,,2013-01-10 21:03:00,
2013-01-10 13:12:00,46.0,41.0,30.10,NNW,345,24.0,28.0,82,0.01,,,0.46,,2013-01-10 21:12:00,
2013-01-10 13:22:00,46.0,41.0,30.10,North,358,21.0,28.0,84,0.01,,,0.46,,2013-01-10 21:22:00,
2013-01-10 13:32:00,45.0,40.0,30.10,North,356,23.0,28.0,83,0.00,,,0.46,,2013-01-10 21:32:00,
2013-01-10 13:42:00,45.0,40.0,30.10,North,356,23.0,28.0,83,0.00,,,0.46,,2013-01-10 21:42:00,
2013-01-10 13:52:00,45.0,41.0,30.11,NNW,336,22.0,27.0,85,0.00,,,0.46,,2013-01-10 21:52:00,
2013-01-10 14:03:00,45.0,41.0,30.11,NNW,336,22.0,27.0,85,0.00,,,0.46,,2013-01-10 22:03:00,
2013-01-10 14:12:00,46.0,41.0,30.11,North,354,24.0,33.0,82,0.00,,,0.46,,2013-01-10 22:12:00,
2013-01-10 14:23:00,46.0,41.0,30.11,North,354,24.0,33.0,82,0.00,,,0.46,,2013-01-10 22:23:00,
2013-01-10 14:32:00,46.0,41.0,30.11,NNW,342,27.0,32.0,82,0.00,,,0.46,,2013-01-10 22:32:00,
2013-01-10 14:43:00,46.0,41.0,30.11,NNW,342,27.0,32.0,82,0.00,,,0.46,,2013-01-10 22:43:00,
2013-01-10 15:02:00,45.0,40.0,30.12,North,359,24.0,34.0,84,0.00,,,0.46,,2013-01-10 23:02:00,
2013-01-10 15:12:00,45.0,40.0,30.12,North,359,24.0,34.0,84,0.00,,,0.46,,2013-01-10 23:12:00,
2013-01-10 15:22:00,45.0,40.0,30.12,North,360,18.0,26.0,83,0.00,,,0.46,,2013-01-10 23:22:00,
2013-01-10 15:32:00,45.0,40.0,30.12,North,1,19.0,25.0,84,0.00,,,0.46,,2013-01-10 23:32:00,
2013-01-10 15:42:00,45.0,40.0,30.12,North,1,19.0,25.0,84,0.00,,,0.46,,2013-01-10 23:42:00,
2013-01-10 15:52:00,44.0,39.0,30.12,NNW,345,16.0,22.0,83,0.00,,,0.46,,2013-01-10 23:52:00,
2013-01-10 16:02:00,44.0,39.0,30.12,NNW,345,16.0,22.0,83,0.00,,,0.46,,2013-01-11 00:02:00,
2013-01-10 16:12:00,44.0,39.0,30.12,NNW,345,16.0,22.0,83,0.00,,,0.46,,2013-01-11 00:12:00,
2013-01-10 16:22:00,43.0,39.0,30.14,NNW,328,6.0,23.0,87,0.00,,,0.46,,2013-01-11 00:22:00,
2013-01-10 16:33:00,44.0,41.0,30.14,NNW,335,19.0,35.0,88,0.00,,,0.45,,2013-01-11 00:33:00,
2013-01-10 16:42:00,44.0,41.0,30.14,NNW,335,19.0,35.0,88,0.00,,,0.45,,2013-01-11 00:42:00,
2013-01-10 16:52:00,45.0,40.0,30.14,NNW,337,29.0,35.0,83,0.00,,,0.45,,2013-01-11 00:52:00,
2013-01-10 17:02:00,45.0,39.0,30.14,NNW,333,28.0,35.0,80,0.00,,,0.45,,2013-01-11 01:02:00,
2013-01-10 17:12:00,44.0,39.0,30.15,NW,321,20.0,38.0,82,0.00,,,0.45,,2013-01-11 01:12:00,
2013-01-10 17:22:00,44.0,39.0,30.15,NW,321,20.0,38.0,82,0.00,,,0.45,,2013-01-11 01:22:00,
2013-01-10 17:33:00,44.0,38.0,30.15,North,6,19.0,29.0,80,0.00,,,0.45,,2013-01-11 01:33:00,
2013-01-10 17:42:00,44.0,38.0,30.15,North,6,19.0,29.0,80,0.00,,,0.45,,2013-01-11 01:42:00,
2013-01-10 17:52:00,42.0,37.0,30.15,NNE,17,16.0,23.0,82,0.00,,,0.45,,2013-01-11 01:52:00,
2013-01-10 18:02:00,45.0,39.0,30.15,NW,323,26.0,33.0,80,0.00,,,0.45,,2013-01-11 02:02:00,
2013-01-10 18:12:00,45.0,39.0,30.15,NW,323,26.0,33.0,80,0.00,,,0.45,,2013-01-11 02:12:00,
2013-01-10 18:22:00,44.0,38.0,30.16,ENE,69,17.0,41.0,78,0.00,,,0.45,,2013-01-11 02:22:00,
2013-01-10 18:32:00,42.0,37.0,30.16,NNE,26,8.0,19.0,82,0.00,,,0.45,,2013-01-11 02:32:00,
2013-01-10 18:43:00,42.0,37.0,30.16,NNE,26,8.0,19.0,82,0.00,,,0.45,,2013-01-11 02:43:00,
2013-01-10 18:52:00,41.0,36.0,30.15,NE,42,6.0,13.0,83,0.00,,,0.45,,2013-01-11 02:52:00,
2013-01-10 19:02:00,42.0,38.0,30.16,North,5,9.0,28.0,84,0.00,,,0.45,,2013-01-11 03:02:00,
2013-01-10 19:12:00,42.0,38.0,30.16,North,5,9.0,28.0,84,0.00,,,0.45,,2013-01-11 03:12:00,
2013-01-10 19:22:00,42.0,37.0,30.16,NNE,25,8.0,24.0,83,0.00,,,0.45,,2013-01-11 03:22:00,
2013-01-10 19:33:00,41.0,36.0,30.16,NNW,329,5.0,13.0,83,0.00,,,0.45,,2013-01-11 03:33:00,
2013-01-10 19:42:00,41.0,36.0,30.16,NNW,329,5.0,13.0,83,0.00,,,0.45,,2013-01-11 03:42:00,
2013-01-10 19:52:00,42.0,37.0,30.17,North,6,16.0,37.0,81,0.00,,,0.45,,2013-01-11 03:52:00,
2013-01-10 20:02:00,44.0,39.0,30.16,North,350,13.0,19.0,81,0.00,,,0.45,,2013-01-11 04:02:00,
2013-01-10 20:12:00,44.0,39.0,30.16,North,350,13.0,19.0,81,0.00,,,0.45,,2013-01-11 04:12:00,
2013-01-10 20:22:00,44.0,39.0,30.16,North,350,13.0,19.0,81,0.00,,,0.45,,2013-01-11 04:22:00,
2013-01-10 20:32:00,45.0,39.0,30.16,NW,325,27.0,34.0,78,0.00,,,0.45,,2013-01-11 04:32:00,
2013-01-10 20:43:00,45.0,39.0,30.16,NW,325,27.0,34.0,78,0.00,,,0.45,,2013-01-11 04:43:00,
2013-01-10 20:53:00,45.0,38.0,30.16,NW,323,24.0,31.0,77,0.00,,,0.45,,2013-01-11 04:53:00,
2013-01-10 21:03:00,45.0,39.0,30.16,NW,323,20.0,25.0,80,0.00,,,0.45,,2013-01-11 05:03:00,
2013-01-10 21:12:00,45.0,39.0,30.16,NW,323,20.0,25.0,80,0.00,,,0.45,,2013-01-11 05:12:00,
2013-01-10 21:22:00,45.0,39.0,30.17,NW,321,29.0,40.0,79,0.00,,,0.45,,2013-01-11 05:22:00,
2013-01-10 21:33:00,43.0,37.0,30.16,NNW,331,14.0,19.0,79,0.01,,,0.46,,2013-01-11 05:33:00,
2013-01-10 21:42:00,43.0,37.0,30.16,NNW,331,14.0,19.0,79,0.01,,,0.46,,2013-01-11 05:42:00,
2013-01-10 21:52:00,45.0,39.0,30.16,NW,322,24.0,28.0,78,0.01,,,0.46,,2013-01-11 05:52:00,
2013-01-10 22:02:00,46.0,39.0,30.17,NNW,330,23.0,29.0,75,0.01,,,0.46,,2013-01-11 06:02:00,
2013-01-10 22:12:00,46.0,39.0,30.17,NNW,330,23.0,29.0,75,0.01,,,0.46,,2013-01-11 06:12:00,
2013-01-10 22:22:00,46.0,38.0,30.17,NNW,339,24.0,30.0,74,0.01,,,0.46,,2013-01-11 06:22:00,
2013-01-10 22:32:00,45.0,39.0,30.17,NW,320,24.0,30.0,78,0.00,,,0.44,,2013-01-11 06:32:00,
2013-01-10 22:42:00,45.0,39.0,30.17,NW,320,24.0,30.0,78,0.00,,,0.44,,2013-01-11 06:42:00,
2013-01-10 22:52:00,45.0,39.0,30.17,NW,325,22.0,27.0,78,0.00,,,0.44,,2013-01-11 06:52:00,
2013-01-10 23:02:00,46.0,40.0,30.16,NW,312,17.0,25.0,80,0.00,,,0.44,,2013-01-11 07:02:00,
2013-01-10 23:11:00,46.0,40.0,30.16,NW,312,17.0,25.0,80,0.00,,,0.44,,2013-01-11 07:11:00,
2013-01-10 23:22:00,46.0,40.0,30.16,NW,312,17.0,25.0,80,0.00,,,0.44,,2013-01-11 07:22:00,
2013-01-10 23:32:00,46.0,39.0,30.16,NNW,329,25.0,30.0,76,0.00,,,0.42,,2013-01-11 07:32:00,
2013-01-10 23:42:00,46.0,39.0,30.16,NNW,333,22.0,31.0,75,0.00,,,0.42,,2013-01-11 07:42:00,
2013-01-10 23:52:00,46.0,39.0,30.16,NNW,333,22.0,31.0,75,0.00,,,0.42,,2013-01-11 07:52:00,